Regional Weather Roundup
Issued by NWS

Home | Current Version | Previous Version | Text Only | Print | Product List | Glossary Off
Versions: 1 2 3 4 5 6 7 8 9 10 11 12 13 14 15 16 17 18 19 20 21 22 23 24 25 26 27 28 29 30 31 32 33 34 35 36 37 38 39 40 41 42 43 44 45 46 47 48 49 50

000
ASUS45 KABQ 300210
RWRNM
WEATHER ROUNDUP FOR NEW MEXICO
NATIONAL WEATHER SERVICE ALBUQUERQUE NM
800 PM MDT MON SEP 29 2014

NOTE: "FAIR" MEANS FEW OR NO CLOUDS BELOW 12,000 FEET AGL WITH NO
       SIGNIFICANT WEATHER OR OBSTRUCTIONS TO VISION.

      THIS PRODUCT IS RELEASED AS TWO VERSIONS.  ONE VERSION NEAR
      THE TOP OF THE HOUR CONTAINING PRELIMINARY DATA FROM ALBUQUERQUE
      AND OTHER STATIONS.  A FINAL VERSION WITH ADDITIONAL DATA IS
      ISSUED ABOUT 10 MINUTES AFTER THE HOUR.

NMZ501-503-504-510>518-300300-
NORTHWEST PLATEAU/NORTHCENTRAL MOUNTAINS

CITY           SKY/WX    TMP DP  RH WIND       PRES   REMARKS
FARMINGTON     CLEAR     54  36  50 NW5       30.04R
LOS ALAMOS     CLEAR     55  31  40 W13G22    30.09S
SANTA FE       CLEAR     56  32  40 NW8       30.03R
TAOS           CLEAR     52  37  58 CALM      30.10R
ANGEL FIRE     FAIR      46  36  67 W5        30.12R

$$
NMZ402-403-502-505>509-300300-
WESTCENTRAL MOUNTAINS/SOUTHWEST MOUNTAINS

CITY           SKY/WX    TMP DP  RH WIND       PRES   REMARKS
GALLUP         CLEAR     52  35  52 CALM      30.08S
GRANTS         CLEAR     54  34  47 CALM      30.10R
SILVER CITY    CLEAR     68  50  52 NW7       30.03S

$$
NMZ407-409-411-412-300300-
SOUTHERN DESERTS

CITY           SKY/WX    TMP DP  RH WIND       PRES   REMARKS
LORDSBURG      FAIR      72  48  43 MISG      29.94S
DEMING         MOCLDY    75  52  44 W8        29.93S
LAS CRUCES     PTCLDY    73  57  58 NW3       29.95S
HOLLOMAN AFB   PTCLDY    76  56  49 SW6       29.91R
ALAMOGORDO     MOCLDY    73  57  56 S10       29.94R
T OR C         CLEAR     72  50  45 SW5       29.94S

$$
NMZ519>523-300300-
CENTRAL VALLEYS/CENTRAL HIGHLANDS

CITY           SKY/WX    TMP DP  RH WIND       PRES   REMARKS
ALBUQUERQUE    PTCLDY    70  27  20 N8        29.99R
DOUBLE EAGLE   CLEAR     63  28  27 W16       30.02R
MORIARTY ARPT  FAIR      58  41  52 W9        30.04R
CLINES CORNERS PTCLDY    56  44  64 W12       30.05R
BELEN          NOT AVBL
SOCORRO        FAIR      74  40  29 W7        29.94R

$$
NMZ524>526-539-540-300300-
SOUTHCENTRAL MOUNTAINS

CITY           SKY/WX    TMP DP  RH WIND       PRES   REMARKS
RUIDOSO        NOT AVBL

$$
NMZ527>531-300300-
NORTHEAST HIGHLANDS/NORTHEAST PLAINS

CITY           SKY/WX    TMP DP  RH WIND       PRES   REMARKS
LAS VEGAS      PTCLDY    53  43  68 S7        30.03R
RATON          CLEAR     53  41  63 SW10      29.97R
CLAYTON        LGT RAIN  58  56  93 S12       29.94S

$$
NMZ532>537-300300-
EASTCENTRAL PLAINS

CITY           SKY/WX    TMP DP  RH WIND       PRES   REMARKS
TUCUMCARI      PTCLDY    71  55  56 S22G32    29.88S
CANNON AFB     MOCLDY    69  56  63 SE15      29.94R
CLOVIS AIRPORT   N/A     66  55  68 S21       29.97R

$$
NMZ028-029-538-300300-
SOUTHEAST PLAINS

CITY           SKY/WX    TMP DP  RH WIND       PRES   REMARKS
ROSWELL        CLEAR     73  57  57 S16       29.89R
CARLSBAD       CLEAR     71  59  65 S8        29.90S
HOBBS          CLEAR     68  57  68 SE10G16   29.96F


$$


USA.gov is the U.S. government's official web portal to all federal, state and local government web resources and services.